Weather in Verkhosunye

Russia / Kirov Oblast     58°01′22″N   51°19′55″E
temp.,
°C
wind,
m/s
gust,
m/s
humid.,
%
clouds,
%
prec.,
mm/h
press.,
hPa
HPBL,
m
11 may, tue
tue1100:00+13nnw4697100 0.4 1024150
03:00+11n479899 0.4 1025265
06:00+12nne4491100 0.0 1027363
09:00+13nne348498 0.0 1028492
12:00+17n337137 0.0 1028750
15:00+19n336317 0.0 1028953
18:00+18nne23705 0.0 1028116
21:00+13ene22825 0.0 102922
12 may, wed
wed1200:00+12ne33855 0.0 103028
03:00+10ene228974 0.0 103023
06:00+14ene34785 0.0 1031177
09:00+18ene33580 0.0 1030655
12:00+21ene22430 0.0 10291170
15:00+23nne11390 0.0 10281277
18:00+20nne22500 0.0 102825
21:00+16ene22530 0.0 102811
13 may, thu
thu1300:00+14ene22550 0.0 102812
03:00+13e22591 0.0 102814
06:00+16ese236190 0.0 102889
09:00+21ese33519 0.0 1028397
12:00+25s35387 0.0 10272338
15:00+25s353694 0.0 10262328
18:00+22s335646 0.0 102544
21:00+17sw22674 0.0 102512
14 may, fri
fri1400:00+16sse33675 0.0 102538
03:00+14s347254 0.0 102463
06:00+17s486982 0.0 1024224
09:00+22s584846 0.0 1023715
12:00+25s683562 0.0 10211561
15:00+25ssw61041100 0.0 10201600
18:00+22ssw51060100 0.0 1020337
21:00+17sw477560 0.0 1020113
15 may, sat
sat1500:00+16sw348894 0.0 102059
03:00+15ssw338828 0.3 102132
06:00+18ssw34755 0.0 1020163
09:00+22ssw565631 0.0 1020623
12:00+26sw794392 0.0 10191309
15:00+26sw694399 0.0 10181349
18:00+23ssw410565 0.0 1018255
21:00+18ssw5136454 0.0 1017214